Location: Maynard F. Jordan Observatory
(44.9000°N, 68.6700°W)
Time: 13:52:17
(UTC-04:00)

Cosmos 2297 Rocket - Visible Passes

Search period start: 23 October 2014 00:00
Search period end: 02 November 2014 00:00
Orbit: 839 x 845 km, 71.0° (Epoch: 22 October)

Date Brightness Start Highest point End Pass type
(mag) Time Alt. Az. Time Alt. Az. Time Alt. Az.
23 Oct 5.0 04:07:22 10° SE 04:10:26 15° E 04:13:30 10° ENE visible
23 Oct 2.1 05:48:04 10° SSW 05:53:42 82° WNW 05:59:24 10° NNE visible
24 Oct 4.9 03:52:38 10° SE 03:55:28 14° E 03:58:18 10° ENE visible
24 Oct 2.1 05:33:03 10° SSW 05:38:41 86° WNW 05:44:23 10° NNE visible
25 Oct 4.9 03:37:54 10° SE 03:40:30 13° E 03:43:05 10° ENE visible
25 Oct 2.1 05:18:02 10° SSW 05:23:40 90° WNW 05:29:22 10° NNE visible
26 Oct 4.9 03:23:13 10° ESE 03:25:31 13° E 03:27:49 10° ENE visible
26 Oct 2.1 05:04:14 17° SSW 05:08:39 87° ESE 05:14:21 10° NNE visible
27 Oct 4.9 03:09:08 11° ESE 03:10:33 12° E 03:12:30 10° ENE visible
27 Oct 2.2 04:51:02 34° SSW 04:53:38 83° ESE 04:59:19 10° NNE visible
27 Oct 3.6 06:34:25 10° W 06:38:26 20° NW 06:42:28 10° N visible
28 Oct 5.0 02:55:38 11° E 02:55:38 11° E 02:57:06 10° E visible
28 Oct 2.2 04:37:31 58° S 04:38:38 79° ESE 04:44:18 10° NNE visible
28 Oct 3.5 06:19:24 11° W 06:23:22 20° NW 06:27:30 10° N visible
29 Oct 2.3 04:23:47 75° E 04:23:47 75° E 04:29:16 10° NNE visible
29 Oct 3.5 06:05:40 16° W 06:08:18 21° NW 06:12:32 10° N visible
30 Oct 2.8 04:09:53 53° NE 04:09:53 53° NE 04:14:15 10° NNE visible
30 Oct 3.4 05:51:45 20° WNW 05:53:14 22° NW 05:57:34 10° N visible
31 Oct 3.4 03:55:52 36° NE 03:55:52 36° NE 03:59:13 10° NNE visible
31 Oct 3.4 05:37:43 23° NW 05:38:10 23° NW 05:42:36 10° N visible
01 Nov 4.0 03:41:44 26° NE 03:41:44 26° NE 03:44:10 10° NNE visible
01 Nov 3.4 05:23:34 23° NW 05:23:34 23° NW 05:27:37 10° N visible
